Home > Weather > Opole > Past weeks

Flag for Poland Past Weather in Opole, Poland — Yesterday and Last 2 Weeks

Now
61 °F

Clear.


Feels Like: 61 °F
Forecast: 62 / 76 °F
Wind: 7 mph from Southeast

Location: Wroclaw Ii

Current Time: May 29, 2016 at 2:19:53 AM

Latest Report: May 29, 2016 at 2:00 AM


Visibility: 10 mi

Pressure: 29.89 "Hg

Humidity: 88%

Dew Point: 57 °F

Location of OpoleLocation

Past Weather in Opole — Graph

°F

Opole Temperature Yesterday

Maximum temperature yesterday: 77 °F (at 1:30 PM)
Minimum temperature yesterday: 55 °F (at 4:30 AM)
Average temperature yesterday: 66 °F

High & Low Weather Summary for the Past Weeks

 TemperatureHumidityPressure
High81 °F (May 23, 1:30 PM)100% (May 14, 2:30 AM)30.09 "Hg (May 14, 2:30 AM)
Low41 °F (May 15, 5:30 AM)33% (May 19, 2:00 PM)29.45 "Hg (May 14, 1:00 AM)
Average59 °F70%29.91 "Hg
* Reported May 14 1:00 AM — May 29 1:00 AM, Opole, Weather by CustomWeather, © 2016

Note: Actual official high and low records may vary slightly from our data, if they occured in-between our weather recording intervals... More about our weather records

Advertising

Opole Weather History for the Previous 24 Hours

Scroll right to see more
 ConditionsComfort  
Time TempWeatherWind HumidityBarometerVisibility
1:00 AM
Sun, May 29
59 °FClear.5 mph94%29.89 "Hg10 mi
12:30 AM61 °FClear.3 mph88%29.92 "Hg10 mi
12:00 AM61 °FClear.6 mph88%29.92 "Hg10 mi
11:30 PM
Sat, May 28
61 °FClear.2 mph88%29.92 "Hg10 mi
11:00 PM63 °FClear.6 mph83%29.92 "Hg10 mi
10:30 PM64 °FClear.5 mph78%29.92 "Hg10 mi
10:00 PM63 °FPassing clouds.6 mph88%29.92 "HgN/A
9:30 PM66 °FSunny.6 mph83%29.92 "Hg10 mi
9:00 PM66 °FPassing clouds.5 mph83%29.92 "HgN/A
8:30 PM66 °FPassing clouds.6 mph83%29.92 "HgN/A
8:00 PM70 °FPassing clouds.9 mph73%29.92 "HgN/A
7:30 PM72 °FPassing clouds.7 mph78%29.92 "HgN/A
7:00 PM72 °FSunny.2 mph78%29.92 "Hg10 mi
6:30 PM70 °FPassing clouds.1 mph83%29.92 "HgN/A
6:00 PM70 °FSprinkles. Passing clouds.5 mph83%29.92 "HgN/A
5:30 PM68 °FSprinkles. Scattered clouds.7 mph88%29.92 "HgN/A
5:00 PM70 °FThunderstorms. Passing clouds.9 mph78%29.92 "HgN/A
4:30 PM72 °FThunderstorms. Passing clouds.6 mph69%29.92 "HgN/A
4:00 PM73 °FSprinkles. Passing clouds.6 mph65%29.92 "HgN/A
3:30 PM75 °FPassing clouds.5 mph54%29.92 "HgN/A
3:00 PM77 °FPassing clouds.3 mph51%29.92 "HgN/A
2:30 PM77 °FPassing clouds.7 mph54%29.92 "HgN/A
2:00 PM77 °FPassing clouds.5 mph57%29.92 "HgN/A
1:30 PM77 °FPassing clouds.6 mph51%29.95 "HgN/A
1:00 PM75 °FPassing clouds.6 mph57%29.95 "HgN/A
12:30 PM73 °FSunny.2 mph65%29.95 "Hg10 mi
12:00 PM70 °FPassing clouds.3 mph73%29.98 "HgN/A
11:30 AM68 °FPassing clouds.6 mph78%29.98 "HgN/A
11:00 AM68 °FPassing clouds.6 mph73%29.98 "HgN/A
10:30 AM70 °FPassing clouds.5 mph69%29.98 "HgN/A
10:00 AM68 °FSunny.3 mph69%29.98 "Hg10 mi
9:30 AM68 °FSunny.1 mph69%29.98 "Hg10 mi
9:00 AM64 °FSunny.1 mph83%29.98 "Hg10 mi
8:30 AM64 °FSunny.2 mph78%29.98 "Hg10 mi
8:00 AM64 °FSunny.2 mph78%29.98 "Hg10 mi
7:30 AM63 °FSunny.2 mph83%29.98 "Hg10 mi
7:00 AM61 °FSunny.2 mph88%29.98 "Hg10 mi
6:30 AM57 °FClear.2 mph100%29.98 "Hg6 mi
6:00 AM55 °FCool.1 mph100%29.98 "Hg2 mi
5:30 AM55 °FCool.5 mph100%29.98 "Hg3 mi
5:00 AM55 °FCool.2 mph94%29.98 "Hg1 mi
4:30 AM55 °FFog.3 mph100%29.98 "HgN/A
4:00 AM57 °FClear.2 mph94%29.98 "Hg10 mi
3:30 AM59 °FClear.1 mph94%30.01 "Hg10 mi
3:00 AM59 °FPassing clouds.3 mph94%30.01 "HgN/A
2:30 AM57 °FClear.6 mph100%30.01 "Hg10 mi
2:00 AM57 °FClear.8 mph94%30.01 "Hg10 mi
Weather by CustomWeather, © 2016

See weather overviewHow to use our weather pages